Location: Unspecified
(0.0000°N, 0.0000°E)
Time: 11:27:57
(UTC+00:00)

SR - Pass Details

Date: 25 November 2019
Orbit: 573 x 882 km, 66.7° (Epoch: 07 December)

Event Time Altitude Azimuth Distance (km) Brightness Sun altitude
Rises 22:45:42 0° 360° (N) 3,362 - -64.3°
Reaches altitude 10° 22:48:34 10° 12° (NNE) 2,387 - -64.7°
Maximum altitude 22:53:09 27° 69° (ENE) 1,435 - -65.4°
Drops below altitude 10° 22:57:27 10° 126° (SE) 2,225 - -65.9°
Sets 23:00:01 0° 138° (SE) 3,092 - -66.2°
